Estación de San Pedro
Ultimos registro cada 15 minutos 65
| N° | Estación | Fecha / Hora | Temperatura | Humedad | Lluvia | Velocidad | Dirección | Radiación | Presion |
| 65 | San Pedro | 05-05-2026 16:00 | 17,1 | 70,3 | 0 | 1,5 | 267 | 178,1 | 998 |
| 64 | San Pedro | 05-05-2026 15:45 | 17,2 | 70,9 | 0 | 2 | 267 | 196,9 | 997,8 |
| 63 | San Pedro | 05-05-2026 15:30 | 17,5 | 68,1 | 0 | 2 | 277 | 198,1 | 997,6 |
| 62 | San Pedro | 05-05-2026 15:15 | 17,9 | 65,7 | 0 | 2 | 277 | 168,1 | 997,4 |
| 61 | San Pedro | 05-05-2026 15:00 | 18,4 | 62,4 | 0 | 2 | 268 | 146,9 | 997,3 |
| 60 | San Pedro | 05-05-2026 14:45 | 18,9 | 59,8 | 0 | 2 | 270 | 174,4 | 997,1 |
| 59 | San Pedro | 05-05-2026 14:30 | 19,7 | 55,6 | 0 | 1,5 | 274 | 203,1 | 997 |
| 58 | San Pedro | 05-05-2026 14:15 | 19,8 | 55,1 | 0 | 2 | 272 | 245,6 | 996,9 |
| 57 | San Pedro | 05-05-2026 14:00 | 20,4 | 54,1 | 0 | 2 | 274 | 240,6 | 997 |
| 56 | San Pedro | 05-05-2026 13:45 | 21,4 | 53,3 | 0 | 2 | 271 | 293,1 | 996,5 |
| 55 | San Pedro | 05-05-2026 13:30 | 21,5 | 54,5 | 0 | 2 | 258 | 304,4 | 996,5 |
| 54 | San Pedro | 05-05-2026 13:15 | 21,7 | 53,2 | 0 | 2 | 271 | 286,9 | 996,5 |
| 53 | San Pedro | 05-05-2026 13:00 | 23,2 | 48 | 0 | 0,5 | 320 | 380,6 | 996,3 |
| 52 | San Pedro | 05-05-2026 12:45 | 22,7 | 49,7 | 0 | 0,5 | 285 | 313,1 | 996,4 |
| 51 | San Pedro | 05-05-2026 12:30 | 22,1 | 50,8 | 0 | 0,5 | 293 | 289,4 | 996,2 |
| 50 | San Pedro | 05-05-2026 12:15 | 22 | 51 | 0 | 0,5 | 314 | 605,6 | 996,4 |
| 49 | San Pedro | 05-05-2026 12:00 | 22 | 49,2 | 0 | 0,5 | 284 | 281,9 | 996,6 |
| 48 | San Pedro | 05-05-2026 11:45 | 21,1 | 53,9 | 0 | 0 | 88 | 283,1 | 996,6 |
| 47 | San Pedro | 05-05-2026 11:30 | 20,4 | 57,1 | 0 | 0,5 | 53 | 488,1 | 996,4 |
| 46 | San Pedro | 05-05-2026 11:15 | 19,1 | 59,8 | 0 | 0,5 | 77 | 645,6 | 996,7 |
| 45 | San Pedro | 05-05-2026 11:00 | 18,7 | 62,3 | 0 | 0,5 | 77 | 226,9 | 997 |
| 44 | San Pedro | 05-05-2026 10:45 | 18,1 | 65,7 | 0 | 0,5 | 37 | 599,4 | 997 |
| 43 | San Pedro | 05-05-2026 10:30 | 17,4 | 66,6 | 0 | 0 | 321 | 576,9 | 997,3 |
| 42 | San Pedro | 05-05-2026 10:15 | 16,7 | 68,9 | 0 | 0 | 48 | 384,4 | 997,4 |
| 41 | San Pedro | 05-05-2026 10:00 | 16,1 | 70,3 | 0 | 0 | 20 | 258,1 | 997,5 |
| 40 | San Pedro | 05-05-2026 09:45 | 15,1 | 74,3 | 0 | 0 | 13 | 221,9 | 997,5 |
| 39 | San Pedro | 05-05-2026 09:30 | 15,3 | 76,3 | 0 | 0 | 321 | 265,6 | 997,4 |
| 38 | San Pedro | 05-05-2026 09:15 | 13,7 | 83,6 | 0 | 0,5 | 279 | 310,6 | 997,5 |
| 37 | San Pedro | 05-05-2026 09:00 | 12,8 | 87,6 | 0 | 0 | 233 | 130,6 | 997,5 |
| 36 | San Pedro | 05-05-2026 08:45 | 11,5 | 92 | 0 | 0 | 247 | 118,1 | 997,6 |
| 35 | San Pedro | 05-05-2026 08:30 | 10,6 | 92,7 | 0 | 0,5 | 226 | 81,9 | 997,6 |
| 34 | San Pedro | 05-05-2026 08:15 | 9,9 | 95,2 | 0 | 0,5 | 80 | 51,9 | 997,8 |
| 33 | San Pedro | 05-05-2026 08:00 | 9,6 | 95,2 | 0 | 0 | 185 | 35,6 | 997,3 |
| 32 | San Pedro | 05-05-2026 07:45 | 9 | 96,1 | 0 | 0 | 261 | 24,4 | 997,8 |
| 31 | San Pedro | 05-05-2026 07:30 | 9,4 | 95,5 | 0 | 0,5 | 194 | 3,1 | 997,6 |
| 30 | San Pedro | 05-05-2026 07:15 | 9,5 | 95,7 | 0 | 0 | 225 | 0,6 | 998,2 |
| 29 | San Pedro | 05-05-2026 07:00 | 8,7 | 96,4 | 0 | 0 | 288 | 0,6 | 998,5 |
| 28 | San Pedro | 05-05-2026 06:45 | 8,5 | 95,6 | 0 | 0 | 170 | 0,6 | 998,8 |
| 27 | San Pedro | 05-05-2026 06:30 | 9,2 | 94,2 | 0 | 0 | 90 | 0,6 | 998,9 |
| 26 | San Pedro | 05-05-2026 06:15 | 8,8 | 95,4 | 0 | 0 | 88 | 0,6 | 999,1 |
| 25 | San Pedro | 05-05-2026 06:00 | 8,8 | 95,7 | 0 | 0 | 90 | 0,6 | 999,1 |
| 24 | San Pedro | 05-05-2026 05:45 | 8,7 | 96,7 | 0 | 0 | 91 | 0,6 | 998,9 |
| 23 | San Pedro | 05-05-2026 05:30 | 8,8 | 96,2 | 0 | 0 | 243 | 0,6 | 998,6 |
| 22 | San Pedro | 05-05-2026 05:15 | 8,3 | 96 | 0 | 0 | 243 | 0,6 | 998,3 |
| 21 | San Pedro | 05-05-2026 05:00 | 8,2 | 95,8 | 0 | 0 | 187 | 0,6 | 997,9 |
| 20 | San Pedro | 05-05-2026 04:45 | 8,2 | 95,7 | 0 | 0 | 128 | 0,6 | 997,7 |
| 19 | San Pedro | 05-05-2026 04:30 | 7,8 | 95,7 | 0 | 0 | 128 | 0,6 | 997,9 |
| 18 | San Pedro | 05-05-2026 04:15 | 7,9 | 96,3 | 0 | 0 | 128 | 0,6 | 998 |
| 17 | San Pedro | 05-05-2026 04:00 | 7,3 | 96,2 | 0 | 0 | 128 | 0,6 | 998,2 |
| 16 | San Pedro | 05-05-2026 03:45 | 7,5 | 95,4 | 0 | 0 | 128 | 0,6 | 998,3 |
| 15 | San Pedro | 05-05-2026 03:30 | 7,6 | 95,2 | 0 | 0 | 128 | 0,6 | 998,3 |
| 14 | San Pedro | 05-05-2026 03:15 | 8,5 | 96,6 | 0 | 0 | 164 | 0,6 | 998,3 |
| 13 | San Pedro | 05-05-2026 03:00 | 7,7 | 96,4 | 0 | 0 | 222 | 0,6 | 998,5 |
| 12 | San Pedro | 05-05-2026 02:45 | 7,5 | 95,9 | 0 | 0 | 223 | 0,6 | 998,5 |
| 11 | San Pedro | 05-05-2026 02:30 | 8,3 | 94,1 | 0 | 0 | 215 | 0,6 | 998,7 |
| 10 | San Pedro | 05-05-2026 02:15 | 8,9 | 92,7 | 0 | 0 | 72 | 0,6 | 998,6 |
| 9 | San Pedro | 05-05-2026 02:00 | 9,1 | 96,9 | 0 | 0 | 72 | 0,6 | 998,6 |
| 8 | San Pedro | 05-05-2026 01:45 | 8,7 | 94,3 | 0 | 0 | 72 | 0,6 | 998,7 |
| 7 | San Pedro | 05-05-2026 01:30 | 9,2 | 93,4 | 0 | 0 | 70 | 0,6 | 998,9 |
| 6 | San Pedro | 05-05-2026 01:15 | 9,9 | 96,3 | 0 | 0 | 70 | 0,6 | 999 |
| 5 | San Pedro | 05-05-2026 01:00 | 9 | 95,7 | 0 | 0 | 70 | 0,6 | 999,1 |
| 4 | San Pedro | 05-05-2026 00:45 | 8,9 | 95,2 | 0 | 0 | 84 | 0,6 | 999 |
| 3 | San Pedro | 05-05-2026 00:30 | 9,3 | 93,2 | 0 | 0 | 93 | 0,6 | 998,9 |
| 2 | San Pedro | 05-05-2026 00:15 | 9,9 | 93,2 | 0 | 0 | 93 | 0,6 | 999,1 |
| 1 | San Pedro | 05-05-2026 00:00 | 9,9 | 92 | 0 | 0 | 93 | 0,6 | 999,3 |